This is the latest recevied weather packets stored in our database for station/object SP9WPN-12. If no packets are shown the sender has not sent any weather packets the latest 10 day(s).
| Time | Temp. | Humidity | Pressure | Rain* | Wind** | Luminosity | Snow |
|---|---|---|---|---|---|---|---|
| 1777688760 | 4.44° C | 96% | 1027.4 hPa | - | - | - | - |
| 1777688162 | 3.89° C | 96% | 1027.4 hPa | - | - | - | - |
| 1777687565 | 3.89° C | 93% | 1027.4 hPa | - | - | - | - |
| 1777686967 | 3.89° C | 95% | 1027.4 hPa | - | - | - | - |
| 1777686369 | 4.44° C | 94% | 1027.3 hPa | - | - | - | - |
| 1777685770 | 3.89° C | 93% | 1027.5 hPa | - | - | - | - |
| 1777685172 | 4.44° C | 95% | 1027.5 hPa | - | - | - | - |
| 1777684575 | 4.44° C | 93% | 1027.5 hPa | - | - | - | - |
| 1777683977 | 5° C | 92% | 1027.4 hPa | - | - | - | - |
| 1777683380 | 4.44° C | 93% | 1027.4 hPa | - | - | - | - |
| 1777682783 | 5° C | 93% | 1027.4 hPa | - | - | - | - |
| 1777682186 | 5° C | 91% | 1027.4 hPa | - | - | - | - |
| 1777681584 | 5° C | 91% | 1027.5 hPa | - | - | - | - |
| 1777680986 | 5° C | 92% | 1027.5 hPa | - | - | - | - |
| 1777680389 | 5° C | 90% | 1027.5 hPa | - | - | - | - |
| 1777679791 | 5.56° C | 89% | 1027.3 hPa | - | - | - | - |
| 1777679194 | 5.56° C | 89% | 1027.4 hPa | - | - | - | - |
| 1777678596 | 5.56° C | 88% | 1027.3 hPa | - | - | - | - |
| 1777677999 | 6.11° C | 87% | 1027.3 hPa | - | - | - | - |
| 1777677401 | 6.11° C | 86% | 1027.3 hPa | - | - | - | - |
| 1777676802 | 6.11° C | 85% | 1027.4 hPa | - | - | - | - |
| 1777676204 | 6.11° C | 87% | 1027.4 hPa | - | - | - | - |
| 1777675606 | 6.67° C | 85% | 1027.4 hPa | - | - | - | - |
| 1777675009 | 6.67° C | 84% | 1027.4 hPa | - | - | - | - |
| 1777674412 | 6.67° C | 84% | 1027.3 hPa | - | - | - | - |
* Rain since midnight (hover to see other rain measurements)
** Current wind speed in m/s (hover to see current wind gust speed)